Location: Tuttlingen
(47.9853°N, 8.8165°E)
Time: 17:25:39
(UTC+01:00)

ISS - Pass Details

Date: 18 November 2017
Orbit: 402 x 407 km, 51.6° (Epoch: 22 November)

Event Time Altitude Azimuth Distance (km) Brightness Sun altitude
Exits shadow 05:31:17 14° 184° (S) 1,251 -1.3 -20.6°
Drops below altitude 10° 05:32:00 10° 174° (S) 1,448 -0.9 -20.4°
Sets 05:34:26 0° 155° (SSE) 2,302 0.4 -20.0°
